#timestamp,LO_Frequency,Hit,StdDev 
1606611615.6,286047004.0,N
1606611635.5,286047002.5,N
1606611655.3,286047000.8,N
1606611675.1,286047000.9,N
1606611695.9,286047000.6,N
1606611715.7,286046996.5,N
1606611735.5,286046998.7,N
1606611755.4,286047002.7,N
1606611775.2,286047000.0,N
1606611795.1,286047000.8,N
1606611796.0,286047000.8,N
1606611815.8,286047001.0,N
1606611835.6,286047002.6,N
1606611855.5,286047001.7,N
1606611875.3,286047004.2,N
1606611895.1,286047006.1,Y
1606611915.9,286047003.7,P
1606611935.7,286047002.5,N
1606611955.6,286047001.3,N
1606611975.4,286047001.8,N
1606611995.2,286047000.1,N
1606612015.1,286047000.6,N
1606612016.0,286047000.6,N
1606612035.8,286046999.9,N
1606612055.7,286047003.8,Y
1606612075.5,286047002.4,P
1606612095.3,286047000.9,N
1606612115.2,286047000.0,N
1606612135.0,286046998.8,N
1606612135.9,286046998.8,N
1606612155.8,286046998.6,N
1606612175.6,286046998.8,N
1606612195.4,286047002.0,N
1606612215.3,286047001.7,N
1606612235.1,286047003.6,N
1606612255.8,286047003.0,N
1606612275.7,286047002.0,N
1606612295.5,286047003.7,N
1606612315.4,286047001.3,N
1606612335.2,286046999.7,N
1606612355.0,286046999.8,N
1606612355.9,286046999.8,N
1606612375.8,286047001.8,N
1606612395.6,286047000.2,N
1606612415.4,286047002.0,N
1606612435.3,286047003.9,N
1606612455.1,286047001.5,N
1606612475.9,286047001.6,N
1606612495.7,286047006.0,Y
1606612515.5,286047000.2,P
1606612535.4,286046998.1,P
1606612555.2,286047001.2,N
1606612575.0,286047002.5,N
1606612575.9,286047002.5,N
1606612595.8,286047000.7,N
1606612615.6,286046999.5,N
1606612635.5,286046998.4,N
1606612655.3,286047002.4,N
1606612675.1,286047001.9,N
1606612695.9,286047005.8,Y
1606612715.7,286047004.2,P
1606612735.5,286047003.8,N
1606612755.4,286047005.0,P
1606612775.2,286047005.3,Y
1606612795.1,286047000.7,P
1606612796.0,286047000.7,N
1606612815.8,286046999.2,N
1606612835.6,286046994.9,Y
1606612855.5,286046995.8,P
1606612875.3,286046996.2,N
1606612895.2,286046995.1,N
1606612915.9,286046996.8,N
1606612935.7,286046995.4,N
1606612955.6,286046995.7,N
1606612975.4,286046996.4,N
1606612995.2,286046994.9,N
1606613015.1,286046999.6,N
1606613016.0,286046999.6,N
1606613035.8,286046996.8,N
1606613055.7,286046996.9,N
1606613075.5,286046997.7,N
1606613095.3,286046998.4,N
1606613115.2,286047000.1,N
1606613135.0,286047000.9,N
1606613135.9,286047000.9,N
1606613155.7,286047002.6,N
1606613175.6,286047000.1,N
1606613195.4,286047001.9,N
1606613215.3,286047005.6,N
1606613235.1,286047007.2,N
1606613236.0,286047007.2,N
1606613255.8,286047006.6,N
1606613275.7,286047003.9,N
1606613295.5,286047004.4,N
1606613315.3,286047002.3,N
1606613335.2,286047004.2,N
1606613355.0,286047011.9,Y
1606613355.9,286047004.1,P
1606613375.8,286046999.7,N
1606613395.6,286047001.8,N
1606613415.4,286047005.1,N
1606613435.3,286047007.3,Y
1606613455.1,286047000.6,P
1606613475.9,286047000.5,N
1606613495.7,286047002.4,P
1606613515.5,286047004.2,Y
1606613535.4,286047000.0,P
1606613555.2,286046999.3,N
1606613575.0,286046998.7,N
1606613575.9,286046998.7,N
1606613595.8,286046996.0,Y
1606613615.6,286046997.6,P
1606613635.5,286046997.8,N
1606613655.3,286046995.9,P
1606613675.1,286046994.1,Y
1606613695.9,286046995.7,P
1606613715.7,286046996.1,P
1606613735.6,286047001.2,N
1606613755.4,286047001.4,N
1606613775.2,286047004.0,N
1606613795.1,286047001.7,N
1606613796.0,286047001.7,N
1606613815.8,286047000.3,N
1606613835.7,286047001.8,N
1606613855.5,286047000.7,N
1606613875.3,286047001.0,N
1606613895.2,286047002.7,N
1606613915.0,286047000.8,N
1606613915.9,286047000.8,N
1606613935.7,286047001.1,N
1606613955.6,286047004.0,N
1606613975.4,286047003.0,N
1606613995.3,286047003.7,N
1606614015.1,286047005.8,N
1606614035.8,286047003.7,N
1606614055.7,286047003.4,N
1606614075.5,286047002.8,N
1606614095.4,286047000.3,N
1606614115.2,286047001.2,N
1606614135.0,286047000.0,N
1606614135.9,286047000.0,N
1606614155.8,286047000.3,N
1606614175.6,286047002.0,N
1606614195.4,286047001.6,N
1606614215.3,286047002.6,N
1606614235.1,286047001.8,N
1606614255.9,286047002.3,N
1606614275.7,286047002.5,N
1606614295.5,286047002.4,N
1606614315.4,286047001.5,N
1606614335.2,286047003.0,N
1606614355.0,286047004.8,Y
1606614355.9,286047004.8,P
1606614375.8,286047003.7,N
1606614395.6,286046999.8,N
1606614415.5,286046996.6,N
1606614435.3,286046995.2,N
1606614455.1,286046996.6,N
1606614475.9,286047001.2,N
1606614495.7,286047001.1,N
1606614515.5,286047002.6,N
1606614535.4,286047001.5,N
1606614555.2,286047000.4,N
1606614575.1,286047001.6,N
1606614576.0,286047001.6,N
1606614595.8,286047000.6,N
1606614615.6,286046998.3,N
1606614635.5,286047003.4,N
1606614655.3,286047003.2,N
1606614675.2,286047000.9,N
1606614695.9,286046998.7,N
1606614715.7,286046999.6,N
1606614735.6,286046998.9,N
1606614755.4,286046998.8,N
1606614775.2,286046998.4,N
1606614795.1,286046999.6,N
1606614796.0,286046999.6,N
1606614815.8,286046996.5,N
1606614835.7,286046999.5,N
1606614855.5,286046998.2,N
1606614875.3,286046999.7,N
1606614895.2,286047001.4,N
1606614915.0,286047003.1,N
1606614915.9,286047003.1,N
1606614935.7,286047003.6,N
1606614955.6,286047007.0,Y
1606614975.4,286047004.2,P
1606614995.3,286047001.4,N
1606615015.1,286047001.3,N
1606615016.0,286047001.3,N
1606615035.8,286047004.1,Y
1606615055.7,286047001.7,P
1606615075.5,286047004.0,P
1606615095.4,286047002.8,N
1606615115.2,286047000.6,N
1606615135.0,286047002.7,N
1606615135.9,286047002.7,N
1606615155.8,286046999.4,N
1606615175.6,286046998.9,N
1606615195.4,286047002.2,N
